Time,TemperatureF,DewpointF,PressureIn,WindDirection,WindDirectionDegrees,WindSpeedMPH,WindSpeedGustMPH,Humidity,HourlyPrecipIn,Conditions,Clouds,dailyrainin,SoftwareType,DateUTC
2013-01-15 00:03:00,26.8,21.8,30.31,WNW,294,13.0,23.0,81,0.00,,---,0.00,VWS V14.01,2013-01-15 05:03:00,
2013-01-15 00:04:00,26.8,22.0,30.31,NW,304,12.0,23.0,82,0.00,,---,0.00,VWS V14.01,2013-01-15 05:04:00,
2013-01-15 00:07:00,26.8,21.8,30.31,WNW,288,17.0,19.0,81,0.00,,---,0.00,VWS V14.01,2013-01-15 05:07:00,
2013-01-15 00:12:00,26.7,22.0,30.31,WNW,301,9.0,15.0,82,0.00,,---,0.00,VWS V14.01,2013-01-15 05:12:00,
2013-01-15 00:17:00,26.7,22.0,30.28,WNW,294,10.0,19.0,82,0.00,,---,0.00,VWS V14.01,2013-01-15 05:17:00,
2013-01-15 00:22:00,26.5,22.0,30.28,WNW,298,7.0,15.0,83,0.00,,---,0.00,VWS V14.01,2013-01-15 05:22:00,
2013-01-15 00:27:00,26.5,22.0,30.29,NW,311,7.0,12.0,83,0.00,,---,0.00,VWS V14.01,2013-01-15 05:27:00,
2013-01-15 00:32:00,26.5,22.0,30.30,NW,307,8.0,15.0,83,0.00,,---,0.00,VWS V14.01,2013-01-15 05:32:00,
2013-01-15 00:37:00,26.5,22.0,30.30,NW,305,10.0,13.0,83,0.00,,---,0.00,VWS V14.01,2013-01-15 05:37:00,
2013-01-15 00:42:00,26.5,22.0,30.29,NW,311,12.0,15.0,83,0.00,,---,0.00,VWS V14.01,2013-01-15 05:42:00,
2013-01-15 00:47:00,26.4,22.0,30.29,WNW,298,6.0,16.0,83,0.00,,---,0.00,VWS V14.01,2013-01-15 05:47:00,
2013-01-15 00:52:00,26.4,22.2,30.28,NW,310,9.0,12.0,84,0.00,,---,0.00,VWS V14.01,2013-01-15 05:52:00,
2013-01-15 00:57:00,26.3,22.1,30.27,WNW,292,11.0,12.0,84,0.00,,---,0.00,VWS V14.01,2013-01-15 05:57:00,
2013-01-15 01:02:00,26.3,22.1,30.28,WNW,298,7.0,12.0,84,0.00,,---,0.00,VWS V14.01,2013-01-15 06:02:00,
2013-01-15 01:07:00,26.3,22.1,30.28,WNW,288,5.0,11.0,84,0.00,,---,0.00,VWS V14.01,2013-01-15 06:07:00,
2013-01-15 01:12:00,26.3,22.1,30.28,NW,308,7.0,10.0,84,0.00,,---,0.00,VWS V14.01,2013-01-15 06:12:00,
2013-01-15 01:17:00,26.2,22.0,30.28,NW,307,6.0,13.0,84,0.00,,---,0.00,VWS V14.01,2013-01-15 06:17:00,
2013-01-15 01:22:00,26.2,22.0,30.27,WNW,291,9.0,12.0,84,0.00,,---,0.00,VWS V14.01,2013-01-15 06:22:00,
2013-01-15 01:27:00,26.2,22.3,30.27,NW,314,7.0,14.0,85,0.00,,---,0.00,VWS V14.01,2013-01-15 06:27:00,
2013-01-15 01:32:00,26.2,22.0,30.26,NW,310,9.0,14.0,84,0.00,,---,0.00,VWS V14.01,2013-01-15 06:32:00,
2013-01-15 01:37:00,26.2,22.3,30.27,WNW,294,6.0,12.0,85,0.00,,---,0.00,VWS V14.01,2013-01-15 06:37:00,
2013-01-15 01:43:00,26.2,22.3,30.27,WNW,301,10.0,12.0,85,0.00,,---,0.00,VWS V14.01,2013-01-15 06:43:00,
2013-01-15 01:48:00,26.2,22.3,30.26,NW,324,7.0,11.0,85,0.00,,---,0.00,VWS V14.01,2013-01-15 06:48:00,
2013-01-15 01:53:00,26.1,22.2,30.27,WNW,293,10.0,14.0,85,0.00,,---,0.00,VWS V14.01,2013-01-15 06:53:00,
2013-01-15 01:58:00,26.2,22.3,30.27,NW,308,11.0,16.0,85,0.00,,---,0.00,VWS V14.01,2013-01-15 06:58:00,
2013-01-15 02:03:00,26.2,22.3,30.27,NW,314,8.0,13.0,85,0.00,,---,0.00,VWS V14.01,2013-01-15 07:03:00,
2013-01-15 02:08:00,26.2,22.3,30.27,NW,316,6.0,10.0,85,0.00,,---,0.00,VWS V14.01,2013-01-15 07:08:00,
2013-01-15 02:13:00,26.1,22.2,30.27,WNW,299,5.0,12.0,85,0.00,,---,0.00,VWS V14.01,2013-01-15 07:13:00,
2013-01-15 02:18:00,26.1,22.2,30.27,NW,305,6.0,11.0,85,0.00,,---,0.00,VWS V14.01,2013-01-15 07:18:00,
2013-01-15 02:23:00,26.1,22.2,30.26,WNW,302,7.0,13.0,85,0.00,,---,0.00,VWS V14.01,2013-01-15 07:23:00,
2013-01-15 02:28:00,26.0,22.1,30.26,WNW,288,5.0,12.0,85,0.00,,---,0.00,VWS V14.01,2013-01-15 07:28:00,
2013-01-15 02:33:00,26.0,22.1,30.26,NNW,328,9.0,10.0,85,0.00,,---,0.00,VWS V14.01,2013-01-15 07:33:00,
2013-01-15 02:38:00,25.9,22.0,30.25,NW,309,9.0,12.0,85,0.00,,---,0.00,VWS V14.01,2013-01-15 07:38:00,
2013-01-15 02:43:00,25.9,22.0,30.26,NW,311,10.0,11.0,85,0.00,,---,0.00,VWS V14.01,2013-01-15 07:43:00,
2013-01-15 02:48:00,25.9,22.0,30.26,WNW,300,5.0,11.0,85,0.00,,---,0.00,VWS V14.01,2013-01-15 07:48:00,
2013-01-15 02:53:00,25.8,21.9,30.26,NW,309,5.0,12.0,85,0.00,,---,0.00,VWS V14.01,2013-01-15 07:53:00,
2013-01-15 02:58:00,25.7,21.8,30.26,NW,311,9.0,9.0,85,0.00,,---,0.00,VWS V14.01,2013-01-15 07:58:00,
2013-01-15 03:03:00,25.6,21.7,30.26,WNW,303,4.0,10.0,85,0.00,,---,0.00,VWS V14.01,2013-01-15 08:03:00,
2013-01-15 03:08:00,25.4,21.5,30.25,NW,319,3.0,8.0,85,0.00,,---,0.00,VWS V14.01,2013-01-15 08:08:00,
2013-01-15 03:13:00,25.2,21.6,30.26,NW,305,6.0,7.0,86,0.00,,---,0.00,VWS V14.01,2013-01-15 08:13:00,
2013-01-15 03:19:00,24.9,21.3,30.27,WNW,297,6.0,6.0,86,0.00,,---,0.00,VWS V14.01,2013-01-15 08:19:00,
2013-01-15 03:24:00,25.0,21.7,30.27,NW,319,6.0,11.0,87,0.00,,---,0.00,VWS V14.01,2013-01-15 08:24:00,
2013-01-15 03:29:00,25.1,21.8,30.27,NW,321,2.0,8.0,87,0.00,,---,0.00,VWS V14.01,2013-01-15 08:29:00,
2013-01-15 03:34:00,25.2,21.9,30.27,WNW,298,6.0,9.0,87,0.00,,---,0.00,VWS V14.01,2013-01-15 08:34:00,
2013-01-15 03:39:00,25.3,21.7,30.27,NNW,333,5.0,9.0,86,0.00,,---,0.00,VWS V14.01,2013-01-15 08:39:00,
2013-01-15 03:44:00,25.4,21.8,30.27,NW,308,4.0,11.0,86,0.00,,---,0.00,VWS V14.01,2013-01-15 08:44:00,
2013-01-15 03:49:00,25.5,21.9,30.26,NNW,331,7.0,8.0,86,0.00,,---,0.00,VWS V14.01,2013-01-15 08:49:00,
2013-01-15 03:54:00,25.6,22.0,30.26,NW,318,6.0,12.0,86,0.00,,---,0.00,VWS V14.01,2013-01-15 08:54:00,
2013-01-15 03:59:00,25.6,22.0,30.26,NW,326,5.0,9.0,86,0.00,,---,0.00,VWS V14.01,2013-01-15 08:59:00,
2013-01-15 04:04:00,25.6,22.0,30.26,NW,314,6.0,9.0,86,0.00,,---,0.00,VWS V14.01,2013-01-15 09:04:00,
2013-01-15 04:09:00,25.6,22.0,30.26,NW,305,7.0,10.0,86,0.00,,---,0.00,VWS V14.01,2013-01-15 09:09:00,
2013-01-15 04:14:00,25.6,22.0,30.26,NW,308,6.0,10.0,86,0.00,,---,0.00,VWS V14.01,2013-01-15 09:14:00,
2013-01-15 04:19:00,25.6,22.0,30.26,NW,309,9.0,9.0,86,0.00,,---,0.00,VWS V14.01,2013-01-15 09:19:00,
2013-01-15 04:24:00,25.5,21.9,30.25,NW,314,4.0,10.0,86,0.00,,---,0.00,VWS V14.01,2013-01-15 09:24:00,
2013-01-15 04:29:00,25.5,22.2,30.24,WNW,298,4.0,7.0,87,0.00,,---,0.00,VWS V14.01,2013-01-15 09:29:00,
2013-01-15 04:34:00,25.4,21.8,30.24,NW,326,4.0,10.0,86,0.00,,---,0.00,VWS V14.01,2013-01-15 09:34:00,
2013-01-15 04:39:00,25.4,21.8,30.24,WNW,303,7.0,11.0,86,0.00,,---,0.00,VWS V14.01,2013-01-15 09:39:00,
2013-01-15 04:44:00,25.4,22.1,30.25,NW,309,10.0,11.0,87,0.00,,---,0.00,VWS V14.01,2013-01-15 09:44:00,
2013-01-15 04:49:00,25.4,22.1,30.25,NW,315,9.0,10.0,87,0.00,,---,0.00,VWS V14.01,2013-01-15 09:49:00,
2013-01-15 04:54:00,25.4,22.1,30.26,NW,323,6.0,14.0,87,0.00,,---,0.00,VWS V14.01,2013-01-15 09:54:00,
2013-01-15 04:59:00,25.4,21.8,30.26,NW,322,6.0,11.0,86,0.00,,---,0.00,VWS V14.01,2013-01-15 09:59:00,
2013-01-15 05:04:00,25.4,21.8,30.26,North,354,11.0,12.0,86,0.00,,---,0.00,VWS V14.01,2013-01-15 10:04:00,
2013-01-15 05:09:00,25.4,21.8,30.27,North,349,8.0,11.0,86,0.00,,---,0.00,VWS V14.01,2013-01-15 10:09:00,
2013-01-15 05:14:00,25.4,21.8,30.26,NW,308,6.0,10.0,86,0.00,,---,0.00,VWS V14.01,2013-01-15 10:14:00,
2013-01-15 05:19:00,25.4,21.8,30.27,NW,319,13.0,15.0,86,0.00,,---,0.00,VWS V14.01,2013-01-15 10:19:00,
2013-01-15 05:24:00,25.4,21.8,30.27,WNW,291,14.0,15.0,86,0.00,,---,0.00,VWS V14.01,2013-01-15 10:24:00,
2013-01-15 05:29:00,25.4,21.8,30.27,NW,321,6.0,16.0,86,0.00,,---,0.00,VWS V14.01,2013-01-15 10:29:00,
2013-01-15 05:34:00,25.4,21.8,30.27,NW,308,6.0,11.0,86,0.00,,---,0.00,VWS V14.01,2013-01-15 10:34:00,
2013-01-15 05:39:00,25.3,21.7,30.27,NW,318,9.0,10.0,86,0.00,,---,0.00,VWS V14.01,2013-01-15 10:39:00,
2013-01-15 05:44:00,25.3,21.7,30.28,NNW,346,7.0,11.0,86,0.00,,---,0.00,VWS V14.01,2013-01-15 10:44:00,
2013-01-15 05:49:00,25.2,21.6,30.28,NW,309,7.0,10.0,86,0.00,,---,0.00,VWS V14.01,2013-01-15 10:49:00,
2013-01-15 05:54:00,25.1,21.5,30.28,NW,309,4.0,8.0,86,0.00,,---,0.00,VWS V14.01,2013-01-15 10:54:00,
2013-01-15 05:59:00,25.0,21.4,30.28,NW,319,5.0,10.0,86,0.00,,---,0.00,VWS V14.01,2013-01-15 10:59:00,
2013-01-15 06:04:00,25.0,21.4,30.28,NW,314,3.0,7.0,86,0.00,,---,0.00,VWS V14.01,2013-01-15 11:04:00,
2013-01-15 06:09:00,25.0,21.4,30.29,NW,310,6.0,8.0,86,0.00,,---,0.00,VWS V14.01,2013-01-15 11:09:00,
2013-01-15 06:14:00,25.0,21.4,30.29,WNW,297,3.0,5.0,86,0.00,,---,0.00,VWS V14.01,2013-01-15 11:14:00,
2013-01-15 06:19:00,25.0,21.4,30.30,NW,314,3.0,8.0,86,0.00,,---,0.00,VWS V14.01,2013-01-15 11:19:00,
2013-01-15 06:24:00,25.0,21.4,30.30,NW,316,5.0,6.0,86,0.00,,---,0.00,VWS V14.01,2013-01-15 11:24:00,
2013-01-15 06:29:00,25.0,21.4,30.30,WNW,298,6.0,9.0,86,0.00,,---,0.00,VWS V14.01,2013-01-15 11:29:00,
2013-01-15 06:34:00,25.0,21.1,30.30,WNW,287,5.0,7.0,85,0.00,,---,0.00,VWS V14.01,2013-01-15 11:34:00,
2013-01-15 06:39:00,25.0,21.1,30.30,WNW,295,6.0,8.0,85,0.00,,---,0.00,VWS V14.01,2013-01-15 11:39:00,
2013-01-15 06:44:00,24.9,21.3,30.30,NW,310,6.0,6.0,86,0.00,,---,0.00,VWS V14.01,2013-01-15 11:44:00,
2013-01-15 06:49:00,24.9,21.3,30.30,North,352,5.0,6.0,86,0.00,,---,0.00,VWS V14.01,2013-01-15 11:49:00,
2013-01-15 06:54:00,24.8,21.2,30.30,NW,323,3.0,7.0,86,0.00,,---,0.00,VWS V14.01,2013-01-15 11:54:00,
2013-01-15 06:59:00,24.7,21.1,30.30,NW,314,3.0,8.0,86,0.00,,---,0.00,VWS V14.01,2013-01-15 11:59:00,
2013-01-15 07:04:00,24.6,21.0,30.31,WNW,289,4.0,10.0,86,0.00,,---,0.00,VWS V14.01,2013-01-15 12:04:00,
2013-01-15 07:09:00,24.6,21.3,30.31,NW,319,6.0,9.0,87,0.00,,---,0.00,VWS V14.01,2013-01-15 12:09:00,
2013-01-15 07:14:00,24.6,21.3,30.31,NW,312,4.0,7.0,87,0.00,,---,0.00,VWS V14.01,2013-01-15 12:14:00,
2013-01-15 07:19:00,24.6,21.3,30.31,NW,314,5.0,8.0,87,0.00,,---,0.00,VWS V14.01,2013-01-15 12:19:00,
2013-01-15 07:24:00,24.5,21.2,30.31,WNW,294,5.0,7.0,87,0.00,,---,0.00,VWS V14.01,2013-01-15 12:24:00,
2013-01-15 07:29:00,24.6,21.3,30.31,WNW,298,3.0,7.0,87,0.00,,---,0.00,VWS V14.01,2013-01-15 12:29:00,
2013-01-15 07:34:00,24.5,21.2,30.31,NW,323,3.0,9.0,87,0.00,,---,0.00,VWS V14.01,2013-01-15 12:34:00,
2013-01-15 07:39:00,24.5,21.2,30.32,NNW,336,5.0,7.0,87,0.00,,---,0.00,VWS V14.01,2013-01-15 12:39:00,
2013-01-15 07:44:00,24.5,21.2,30.32,NW,309,3.0,9.0,87,0.00,,---,0.00,VWS V14.01,2013-01-15 12:44:00,
2013-01-15 07:49:00,24.5,21.2,30.31,NW,304,5.0,7.0,87,0.00,,---,0.00,VWS V14.01,2013-01-15 12:49:00,
2013-01-15 07:54:00,24.5,21.2,30.32,NW,308,6.0,7.0,87,0.00,,---,0.00,VWS V14.01,2013-01-15 12:54:00,
2013-01-15 07:59:00,24.5,21.2,30.32,NW,323,6.0,8.0,87,0.00,,---,0.00,VWS V14.01,2013-01-15 12:59:00,
2013-01-15 08:04:00,24.5,21.5,30.32,WNW,295,2.0,5.0,88,0.00,,---,0.00,VWS V14.01,2013-01-15 13:04:00,
2013-01-15 08:09:00,24.6,21.6,30.33,NW,315,3.0,6.0,88,0.00,,---,0.00,VWS V14.01,2013-01-15 13:09:00,
2013-01-15 08:14:00,24.6,21.3,30.33,NNW,335,2.0,7.0,87,0.00,,---,0.00,VWS V14.01,2013-01-15 13:14:00,
2013-01-15 08:19:00,24.8,21.5,30.33,WNW,301,3.0,5.0,87,0.00,,---,0.00,VWS V14.01,2013-01-15 13:19:00,
2013-01-15 08:24:00,24.8,21.5,30.33,WNW,289,3.0,6.0,87,0.00,,---,0.00,VWS V14.01,2013-01-15 13:24:00,
2013-01-15 08:29:00,24.9,21.6,30.34,WNW,292,4.0,4.0,87,0.00,,---,0.00,VWS V14.01,2013-01-15 13:29:00,
2013-01-15 08:34:00,25.0,21.7,30.34,WNW,290,3.0,6.0,87,0.00,,---,0.00,VWS V14.01,2013-01-15 13:34:00,
2013-01-15 08:39:00,25.1,21.8,30.34,NW,306,5.0,7.0,87,0.00,,---,0.00,VWS V14.01,2013-01-15 13:39:00,
2013-01-15 08:44:00,25.2,21.9,30.35,WNW,287,4.0,7.0,87,0.00,,---,0.00,VWS V14.01,2013-01-15 13:44:00,
2013-01-15 08:49:00,25.3,21.7,30.35,NW,319,6.0,10.0,86,0.00,,---,0.00,VWS V14.01,2013-01-15 13:49:00,
2013-01-15 08:54:00,25.4,21.8,30.35,NW,305,4.0,7.0,86,0.00,,---,0.00,VWS V14.01,2013-01-15 13:54:00,
2013-01-15 08:59:00,25.5,21.9,30.35,NW,308,3.0,7.0,86,0.00,,---,0.00,VWS V14.01,2013-01-15 13:59:00,
2013-01-15 09:04:00,25.7,22.1,30.35,WNW,290,5.0,6.0,86,0.00,,---,0.00,VWS V14.01,2013-01-15 14:04:00,
2013-01-15 09:09:00,25.9,21.7,30.36,NNW,335,4.0,7.0,84,0.00,,---,0.00,VWS V14.01,2013-01-15 14:09:00,
2013-01-15 09:14:00,26.0,21.6,30.36,NW,321,7.0,9.0,83,0.00,,---,0.00,VWS V14.01,2013-01-15 14:14:00,
2013-01-15 09:19:00,26.1,21.6,30.36,NW,308,4.0,6.0,83,0.00,,---,0.00,VWS V14.01,2013-01-15 14:19:00,
2013-01-15 09:24:00,26.3,21.6,30.36,NW,317,7.0,9.0,82,0.00,,---,0.00,VWS V14.01,2013-01-15 14:24:00,
2013-01-15 09:29:00,26.3,21.6,30.36,NW,305,4.0,8.0,82,0.00,,---,0.00,VWS V14.01,2013-01-15 14:29:00,
2013-01-15 09:34:00,26.4,21.4,30.37,North,356,3.0,8.0,81,0.00,,---,0.00,VWS V14.01,2013-01-15 14:34:00,
2013-01-15 09:39:00,26.5,21.5,30.36,NW,316,5.0,9.0,81,0.00,,---,0.00,VWS V14.01,2013-01-15 14:39:00,
2013-01-15 09:44:00,26.5,21.5,30.36,NW,310,7.0,7.0,81,0.00,,---,0.00,VWS V14.01,2013-01-15 14:44:00,
2013-01-15 09:49:00,26.5,21.8,30.36,WNW,290,6.0,8.0,82,0.00,,---,0.00,VWS V14.01,2013-01-15 14:49:00,
2013-01-15 09:54:00,26.6,21.9,30.36,WNW,291,2.0,7.0,82,0.00,,---,0.00,VWS V14.01,2013-01-15 14:54:00,
2013-01-15 09:59:00,26.6,21.9,30.36,WNW,295,5.0,9.0,82,0.00,,---,0.00,VWS V14.01,2013-01-15 14:59:00,
2013-01-15 10:04:00,26.6,21.9,30.37,NW,309,8.0,11.0,82,0.00,,---,0.00,VWS V14.01,2013-01-15 15:04:00,
2013-01-15 10:09:00,26.5,22.0,30.37,WNW,300,5.0,11.0,83,0.00,,---,0.00,VWS V14.01,2013-01-15 15:09:00,
2013-01-15 10:14:00,26.7,22.2,30.37,NW,308,6.0,8.0,83,0.00,,---,0.00,VWS V14.01,2013-01-15 15:14:00,
2013-01-15 10:19:00,26.7,22.0,30.37,WNW,288,4.0,8.0,82,0.00,,---,0.00,VWS V14.01,2013-01-15 15:19:00,
2013-01-15 10:24:00,26.7,22.0,30.36,WNW,285,8.0,11.0,82,0.00,,---,0.00,VWS V14.01,2013-01-15 15:24:00,
2013-01-15 10:29:00,26.7,22.2,30.36,WNW,300,9.0,10.0,83,0.00,,---,0.00,VWS V14.01,2013-01-15 15:29:00,
2013-01-15 10:34:00,26.6,21.9,30.36,WNW,289,6.0,11.0,82,0.00,,---,0.00,VWS V14.01,2013-01-15 15:34:00,
2013-01-15 10:39:00,26.7,22.0,30.35,NNW,332,8.0,10.0,82,0.00,,---,0.00,VWS V14.01,2013-01-15 15:39:00,
2013-01-15 10:44:00,26.8,21.8,30.35,NW,308,8.0,9.0,81,0.00,,---,0.00,VWS V14.01,2013-01-15 15:44:00,
2013-01-15 10:49:00,26.7,21.7,30.35,NW,307,6.0,11.0,81,0.00,,---,0.00,VWS V14.01,2013-01-15 15:49:00,
2013-01-15 10:54:00,26.7,21.4,30.34,NW,322,8.0,12.0,80,0.00,,---,0.00,VWS V14.01,2013-01-15 15:54:00,
2013-01-15 10:59:00,26.7,21.4,30.34,NW,309,5.0,11.0,80,0.00,,---,0.00,VWS V14.01,2013-01-15 15:59:00,
2013-01-15 11:04:00,26.7,21.4,30.34,WNW,302,7.0,9.0,80,0.00,,---,0.00,VWS V14.01,2013-01-15 16:04:00,
2013-01-15 11:09:00,26.7,21.4,30.34,WNW,297,4.0,12.0,80,0.00,,---,0.00,VWS V14.01,2013-01-15 16:09:00,
2013-01-15 11:14:00,26.7,20.8,30.35,NNW,346,4.0,10.0,78,0.00,,---,0.00,VWS V14.01,2013-01-15 16:14:00,
2013-01-15 11:19:00,26.9,21.0,30.35,NNW,333,3.0,9.0,78,0.00,,---,0.00,VWS V14.01,2013-01-15 16:19:00,
2013-01-15 11:24:00,26.9,21.0,30.34,WNW,298,4.0,9.0,78,0.00,,---,0.00,VWS V14.01,2013-01-15 16:24:00,
2013-01-15 11:29:00,27.0,21.1,30.34,WSW,256,7.0,11.0,78,0.00,,---,0.00,VWS V14.01,2013-01-15 16:29:00,
2013-01-15 11:34:00,27.1,21.2,30.34,NW,323,7.0,12.0,78,0.00,,---,0.00,VWS V14.01,2013-01-15 16:34:00,
2013-01-15 11:39:00,27.2,21.0,30.34,NNW,345,9.0,10.0,77,0.00,,---,0.00,VWS V14.01,2013-01-15 16:39:00,
2013-01-15 11:44:00,27.0,21.1,30.34,NNW,338,9.0,11.0,78,0.00,,---,0.00,VWS V14.01,2013-01-15 16:44:00,
2013-01-15 11:49:00,27.0,21.1,30.34,NNE,19,4.0,13.0,78,0.00,,---,0.00,VWS V14.01,2013-01-15 16:49:00,
2013-01-15 11:54:00,26.9,20.7,30.34,NW,305,8.0,12.0,77,0.00,,---,0.00,VWS V14.01,2013-01-15 16:54:00,
2013-01-15 11:59:00,26.8,20.6,30.34,NW,316,10.0,14.0,77,0.00,,---,0.00,VWS V14.01,2013-01-15 16:59:00,
2013-01-15 12:04:00,26.9,20.7,30.34,WNW,295,9.0,10.0,77,0.00,,---,0.00,VWS V14.01,2013-01-15 17:04:00,
2013-01-15 12:09:00,26.9,20.4,30.34,WNW,298,12.0,18.0,76,0.00,,---,0.00,VWS V14.01,2013-01-15 17:09:00,
2013-01-15 12:14:00,26.7,19.9,30.33,WNW,288,9.0,17.0,75,0.00,,---,0.00,VWS V14.01,2013-01-15 17:14:00,
2013-01-15 12:19:00,26.7,19.9,30.33,NW,307,7.0,14.0,75,0.00,,---,0.00,VWS V14.01,2013-01-15 17:19:00,
2013-01-15 12:24:00,26.8,20.0,30.33,WNW,290,6.0,9.0,75,0.00,,---,0.00,VWS V14.01,2013-01-15 17:24:00,
2013-01-15 12:29:00,26.8,20.3,30.33,NW,305,8.0,15.0,76,0.00,,---,0.00,VWS V14.01,2013-01-15 17:29:00,
2013-01-15 12:34:00,27.0,20.5,30.33,NNW,333,4.0,13.0,76,0.00,,---,0.00,VWS V14.01,2013-01-15 17:34:00,
2013-01-15 12:39:00,27.3,20.4,30.32,WNW,285,7.0,12.0,75,0.00,,---,0.00,VWS V14.01,2013-01-15 17:39:00,
2013-01-15 12:44:00,27.3,20.4,30.32,West,263,4.0,12.0,75,0.00,,---,0.00,VWS V14.01,2013-01-15 17:44:00,
2013-01-15 12:49:00,27.3,20.4,30.32,West,278,6.0,12.0,75,0.00,,---,0.00,VWS V14.01,2013-01-15 17:49:00,
2013-01-15 12:54:00,27.3,20.4,30.32,North,1,9.0,10.0,75,0.00,,---,0.00,VWS V14.01,2013-01-15 17:54:00,
2013-01-15 12:59:00,27.3,20.4,30.32,NW,310,5.0,7.0,75,0.00,,---,0.00,VWS V14.01,2013-01-15 17:59:00,
2013-01-15 13:04:00,27.2,20.3,30.32,NW,315,6.0,13.0,75,0.00,,---,0.00,VWS V14.01,2013-01-15 18:04:00,
2013-01-15 13:09:00,27.4,20.8,30.32,WNW,294,8.0,13.0,76,0.00,,---,0.00,VWS V14.01,2013-01-15 18:09:00,
2013-01-15 13:14:00,27.5,20.9,30.31,NW,321,7.0,9.0,76,0.00,,---,0.00,VWS V14.01,2013-01-15 18:14:00,
2013-01-15 13:19:00,27.7,20.8,30.31,NW,309,7.0,12.0,75,0.00,,---,0.00,VWS V14.01,2013-01-15 18:19:00,
2013-01-15 13:25:00,27.9,21.0,30.32,NW,309,4.0,11.0,75,0.00,,---,0.00,VWS V14.01,2013-01-15 18:25:00,
2013-01-15 13:30:00,27.9,20.7,30.31,NW,308,8.0,12.0,74,0.00,,---,0.00,VWS V14.01,2013-01-15 18:30:00,
2013-01-15 13:35:00,27.6,20.4,30.31,NW,322,5.0,15.0,74,0.00,,---,0.00,VWS V14.01,2013-01-15 18:35:00,
2013-01-15 13:40:00,27.8,20.9,30.31,NNW,330,7.0,13.0,75,0.00,,---,0.00,VWS V14.01,2013-01-15 18:40:00,
2013-01-15 13:45:00,27.7,20.8,30.31,WNW,301,7.0,14.0,75,0.00,,---,0.00,VWS V14.01,2013-01-15 18:45:00,
2013-01-15 13:50:00,27.8,20.6,30.31,WNW,293,8.0,12.0,74,0.00,,---,0.00,VWS V14.01,2013-01-15 18:50:00,
2013-01-15 13:55:00,28.2,21.6,30.31,NW,309,6.0,8.0,76,0.00,,---,0.00,VWS V14.01,2013-01-15 18:55:00,
2013-01-15 14:00:00,28.4,21.2,30.30,West,281,5.0,13.0,74,0.00,,---,0.00,VWS V14.01,2013-01-15 19:00:00,
2013-01-15 14:06:00,28.5,21.0,30.30,NW,309,4.0,10.0,73,0.00,,---,0.00,VWS V14.01,2013-01-15 19:06:00,
2013-01-15 14:11:00,28.6,21.1,30.29,NW,305,6.0,10.0,73,0.00,,---,0.00,VWS V14.01,2013-01-15 19:11:00,
2013-01-15 14:16:00,28.5,21.3,30.29,NW,309,7.0,11.0,74,0.00,,---,0.00,VWS V14.01,2013-01-15 19:16:00,
2013-01-15 14:21:00,28.2,21.0,30.29,West,281,2.0,12.0,74,0.00,,---,0.00,VWS V14.01,2013-01-15 19:21:00,
2013-01-15 14:26:00,28.1,20.9,30.28,WNW,291,8.0,11.0,74,0.00,,---,0.00,VWS V14.01,2013-01-15 19:26:00,
2013-01-15 14:31:00,28.1,20.6,30.28,WNW,291,11.0,15.0,73,0.00,,---,0.00,VWS V14.01,2013-01-15 19:31:00,
2013-01-15 14:36:00,28.0,20.8,30.29,WNW,298,7.0,12.0,74,0.00,,---,0.00,VWS V14.01,2013-01-15 19:36:00,
2013-01-15 14:41:00,27.9,20.7,30.28,NW,314,8.0,12.0,74,0.00,,---,0.00,VWS V14.01,2013-01-15 19:41:00,
2013-01-15 14:46:00,27.8,20.6,30.28,NW,312,10.0,13.0,74,0.00,,---,0.00,VWS V14.01,2013-01-15 19:46:00,
2013-01-15 14:51:00,27.6,20.7,30.28,WNW,291,7.0,11.0,75,0.00,,---,0.00,VWS V14.01,2013-01-15 19:51:00,
2013-01-15 14:56:00,27.6,20.7,30.29,NW,312,4.0,11.0,75,0.00,,---,0.00,VWS V14.01,2013-01-15 19:56:00,
2013-01-15 15:01:00,27.5,20.6,30.30,NNW,340,4.0,10.0,75,0.00,,---,0.00,VWS V14.01,2013-01-15 20:01:00,
2013-01-15 15:06:00,27.5,20.6,30.30,West,280,9.0,11.0,75,0.00,,---,0.00,VWS V14.01,2013-01-15 20:06:00,
2013-01-15 15:11:00,27.4,20.5,30.31,WNW,301,4.0,14.0,75,0.00,,---,0.00,VWS V14.01,2013-01-15 20:11:00,
2013-01-15 15:16:00,27.4,20.5,30.31,NW,305,7.0,9.0,75,0.00,,---,0.00,VWS V14.01,2013-01-15 20:16:00,
2013-01-15 15:21:00,27.4,20.5,30.31,NW,307,6.0,9.0,75,0.00,,---,0.00,VWS V14.01,2013-01-15 20:21:00,
2013-01-15 15:26:00,27.3,20.4,30.31,WNW,302,7.0,12.0,75,0.00,,---,0.00,VWS V14.01,2013-01-15 20:26:00,
2013-01-15 15:31:00,27.3,20.8,30.31,WNW,302,5.0,9.0,76,0.00,,---,0.00,VWS V14.01,2013-01-15 20:31:00,
2013-01-15 15:36:00,27.3,20.8,30.31,WNW,298,4.0,7.0,76,0.00,,---,0.00,VWS V14.01,2013-01-15 20:36:00,
2013-01-15 15:41:00,27.3,20.8,30.31,NW,305,7.0,9.0,76,0.00,,---,0.00,VWS V14.01,2013-01-15 20:41:00,
2013-01-15 15:47:00,27.3,20.8,30.31,WNW,302,8.0,9.0,76,0.00,,---,0.00,VWS V14.01,2013-01-15 20:47:00,
2013-01-15 15:52:00,27.2,20.6,30.32,WNW,300,8.0,10.0,76,0.00,,---,0.00,VWS V14.01,2013-01-15 20:52:00,
2013-01-15 15:57:00,27.1,20.5,30.32,NW,305,9.0,10.0,76,0.00,,---,0.00,VWS V14.01,2013-01-15 20:57:00,
2013-01-15 16:02:00,27.0,20.5,30.32,WNW,303,5.0,10.0,76,0.00,,---,0.00,VWS V14.01,2013-01-15 21:02:00,
2013-01-15 16:07:00,26.8,20.6,30.31,NNW,338,6.0,12.0,77,0.00,,---,0.00,VWS V14.01,2013-01-15 21:07:00,
2013-01-15 16:12:00,26.6,20.4,30.32,WNW,301,7.0,10.0,77,0.00,,---,0.00,VWS V14.01,2013-01-15 21:12:00,
2013-01-15 16:17:00,26.5,20.6,30.32,NW,307,8.0,10.0,78,0.00,,---,0.00,VWS V14.01,2013-01-15 21:17:00,
2013-01-15 16:22:00,26.4,20.5,30.32,NNW,333,5.0,9.0,78,0.00,,---,0.00,VWS V14.01,2013-01-15 21:22:00,
2013-01-15 16:27:00,26.3,20.4,30.32,NNW,329,5.0,11.0,78,0.00,,---,0.00,VWS V14.01,2013-01-15 21:27:00,
2013-01-15 16:32:00,26.2,20.3,30.32,NW,318,4.0,9.0,78,0.00,,---,0.00,VWS V14.01,2013-01-15 21:32:00,
2013-01-15 16:37:00,26.1,20.2,30.32,WNW,300,5.0,12.0,78,0.00,,---,0.00,VWS V14.01,2013-01-15 21:37:00,
2013-01-15 16:42:00,26.0,20.4,30.32,NW,319,6.0,11.0,79,0.00,,---,0.00,VWS V14.01,2013-01-15 21:42:00,
2013-01-15 16:47:00,26.0,20.4,30.31,NW,312,5.0,11.0,79,0.00,,---,0.00,VWS V14.01,2013-01-15 21:47:00,
2013-01-15 16:52:00,25.9,20.3,30.31,NW,319,7.0,11.0,79,0.00,,---,0.00,VWS V14.01,2013-01-15 21:52:00,
2013-01-15 16:57:00,25.8,20.2,30.30,NW,314,10.0,11.0,79,0.00,,---,0.00,VWS V14.01,2013-01-15 21:57:00,
2013-01-15 17:02:00,25.7,20.4,30.30,NW,305,4.0,8.0,80,0.00,,---,0.00,VWS V14.01,2013-01-15 22:02:00,
2013-01-15 17:07:00,25.6,20.3,30.31,NW,307,3.0,11.0,80,0.00,,---,0.00,VWS V14.01,2013-01-15 22:07:00,
2013-01-15 17:12:00,25.6,20.3,30.31,WNW,300,4.0,9.0,80,0.00,,---,0.00,VWS V14.01,2013-01-15 22:12:00,
2013-01-15 17:18:00,25.5,20.2,30.32,WNW,300,6.0,8.0,80,0.00,,---,0.00,VWS V14.01,2013-01-15 22:18:00,
2013-01-15 17:23:00,25.5,20.2,30.32,WNW,301,5.0,11.0,80,0.00,,---,0.00,VWS V14.01,2013-01-15 22:23:00,
2013-01-15 17:28:00,25.4,20.1,30.32,NW,325,7.0,10.0,80,0.00,,---,0.00,VWS V14.01,2013-01-15 22:28:00,
2013-01-15 17:33:00,25.4,20.1,30.33,NW,314,5.0,10.0,80,0.00,,---,0.00,VWS V14.01,2013-01-15 22:33:00,
2013-01-15 17:38:00,25.3,20.0,30.33,WNW,301,7.0,11.0,80,0.00,,---,0.00,VWS V14.01,2013-01-15 22:38:00,
2013-01-15 17:43:00,25.3,20.0,30.32,NW,310,5.0,13.0,80,0.00,,---,0.00,VWS V14.01,2013-01-15 22:43:00,
2013-01-15 17:48:00,25.2,19.9,30.32,WNW,296,4.0,10.0,80,0.00,,---,0.00,VWS V14.01,2013-01-15 22:48:00,
2013-01-15 17:53:00,25.1,19.8,30.32,NW,318,5.0,11.0,80,0.00,,---,0.00,VWS V14.01,2013-01-15 22:53:00,
2013-01-15 17:58:00,25.1,19.8,30.32,NW,320,7.0,10.0,80,0.00,,---,0.00,VWS V14.01,2013-01-15 22:58:00,
2013-01-15 18:03:00,25.1,19.8,30.32,NW,316,8.0,11.0,80,0.00,,---,0.00,VWS V14.01,2013-01-15 23:03:00,
2013-01-15 18:08:00,25.1,19.8,30.32,NW,319,2.0,8.0,80,0.00,,---,0.00,VWS V14.01,2013-01-15 23:08:00,
2013-01-15 18:13:00,24.9,19.6,30.31,NNW,330,4.0,11.0,80,0.00,,---,0.00,VWS V14.01,2013-01-15 23:13:00,
2013-01-15 18:18:00,24.8,19.5,30.32,NW,305,4.0,7.0,80,0.00,,---,0.00,VWS V14.01,2013-01-15 23:18:00,
2013-01-15 18:23:00,24.8,19.5,30.32,NW,319,7.0,8.0,80,0.00,,---,0.00,VWS V14.01,2013-01-15 23:23:00,
2013-01-15 18:28:00,24.8,19.5,30.32,WNW,298,7.0,9.0,80,0.00,,---,0.00,VWS V14.01,2013-01-15 23:28:00,
2013-01-15 18:33:00,24.7,19.4,30.32,NW,308,6.0,8.0,80,0.00,,---,0.00,VWS V14.01,2013-01-15 23:33:00,
2013-01-15 18:38:00,24.8,19.5,30.32,NW,308,3.0,11.0,80,0.00,,---,0.00,VWS V14.01,2013-01-15 23:38:00,
2013-01-15 18:43:00,24.8,19.5,30.32,NW,319,8.0,10.0,80,0.00,,---,0.00,VWS V14.01,2013-01-15 23:43:00,
2013-01-15 18:48:00,24.7,19.4,30.31,NW,305,8.0,8.0,80,0.00,,---,0.00,VWS V14.01,2013-01-15 23:48:00,
2013-01-15 18:53:00,24.8,19.5,30.31,NW,316,8.0,9.0,80,0.00,,---,0.00,VWS V14.01,2013-01-15 23:53:00,
2013-01-15 18:58:00,24.8,19.5,30.31,WNW,298,7.0,9.0,80,0.00,,---,0.00,VWS V14.01,2013-01-15 23:58:00,
2013-01-15 19:03:00,24.8,19.2,30.32,WNW,300,3.0,9.0,79,0.00,,---,0.00,VWS V14.01,2013-01-16 00:03:00,
2013-01-15 19:08:00,24.8,19.2,30.31,NW,323,1.0,9.0,79,0.00,,---,0.00,VWS V14.01,2013-01-16 00:08:00,
2013-01-15 19:13:00,24.8,19.2,30.30,NW,307,6.0,11.0,79,0.00,,---,0.00,VWS V14.01,2013-01-16 00:13:00,
2013-01-15 19:19:00,24.8,19.2,30.30,NW,314,5.0,10.0,79,0.00,,---,0.00,VWS V14.01,2013-01-16 00:19:00,
2013-01-15 19:24:00,24.8,19.2,30.30,WNW,298,5.0,12.0,79,0.00,,---,0.00,VWS V14.01,2013-01-16 00:24:00,
2013-01-15 19:29:00,24.9,19.3,30.31,NW,308,5.0,10.0,79,0.00,,---,0.00,VWS V14.01,2013-01-16 00:29:00,
2013-01-15 19:34:00,24.9,19.3,30.31,NW,312,10.0,12.0,79,0.00,,---,0.00,VWS V14.01,2013-01-16 00:34:00,
2013-01-15 19:39:00,24.9,19.3,30.30,WNW,285,8.0,10.0,79,0.00,,---,0.00,VWS V14.01,2013-01-16 00:39:00,
2013-01-15 19:44:00,24.9,19.3,30.30,NW,313,3.0,8.0,79,0.00,,---,0.00,VWS V14.01,2013-01-16 00:44:00,
2013-01-15 19:49:00,24.9,19.3,30.30,NW,307,7.0,10.0,79,0.00,,---,0.00,VWS V14.01,2013-01-16 00:49:00,
2013-01-15 19:54:00,24.8,19.2,30.30,WNW,288,6.0,11.0,79,0.00,,---,0.00,VWS V14.01,2013-01-16 00:54:00,
2013-01-15 19:59:00,24.8,19.2,30.29,NW,309,8.0,11.0,79,0.00,,---,0.00,VWS V14.01,2013-01-16 00:59:00,
2013-01-15 20:04:00,24.8,19.2,30.29,WNW,296,9.0,14.0,79,0.00,,---,0.00,VWS V14.01,2013-01-16 01:04:00,
2013-01-15 20:09:00,24.8,19.2,30.28,WNW,300,10.0,13.0,79,0.00,,---,0.00,VWS V14.01,2013-01-16 01:09:00,
2013-01-15 20:14:00,24.8,19.5,30.29,NNW,331,5.0,12.0,80,0.00,,---,0.00,VWS V14.01,2013-01-16 01:14:00,
2013-01-15 20:19:00,24.8,19.2,30.29,NNW,344,9.0,13.0,79,0.00,,---,0.00,VWS V14.01,2013-01-16 01:19:00,
2013-01-15 20:24:00,24.8,19.5,30.30,WNW,302,6.0,14.0,80,0.00,,---,0.00,VWS V14.01,2013-01-16 01:24:00,
2013-01-15 20:29:00,24.8,19.5,30.29,WNW,285,6.0,13.0,80,0.00,,---,0.00,VWS V14.01,2013-01-16 01:29:00,
2013-01-15 20:34:00,24.8,19.5,30.29,NW,308,7.0,12.0,80,0.00,,---,0.00,VWS V14.01,2013-01-16 01:34:00,
2013-01-15 20:39:00,24.8,19.5,30.29,West,281,9.0,10.0,80,0.00,,---,0.00,VWS V14.01,2013-01-16 01:39:00,
2013-01-15 20:44:00,24.8,19.5,30.28,NW,312,9.0,12.0,80,0.00,,---,0.00,VWS V14.01,2013-01-16 01:44:00,
2013-01-15 20:49:00,24.8,19.2,30.27,WNW,293,11.0,14.0,79,0.00,,---,0.00,VWS V14.01,2013-01-16 01:49:00,
2013-01-15 20:54:00,24.9,19.3,30.27,NW,319,8.0,13.0,79,0.00,,---,0.00,VWS V14.01,2013-01-16 01:54:00,
2013-01-15 20:59:00,24.9,19.3,30.27,NW,307,7.0,12.0,79,0.00,,---,0.00,VWS V14.01,2013-01-16 01:59:00,
2013-01-15 21:04:00,24.9,19.3,30.27,NW,304,9.0,13.0,79,0.00,,---,0.00,VWS V14.01,2013-01-16 02:04:00,
2013-01-15 21:09:00,24.8,18.9,30.27,NW,326,5.0,11.0,78,0.00,,---,0.00,VWS V14.01,2013-01-16 02:09:00,
2013-01-15 21:14:00,24.8,19.2,30.27,WNW,287,3.0,10.0,79,0.00,,---,0.00,VWS V14.01,2013-01-16 02:14:00,
2013-01-15 21:19:00,24.7,19.1,30.26,WNW,295,9.0,9.0,79,0.00,,---,0.00,VWS V14.01,2013-01-16 02:19:00,
2013-01-15 21:24:00,24.7,19.1,30.26,NW,307,4.0,7.0,79,0.00,,---,0.00,VWS V14.01,2013-01-16 02:24:00,
2013-01-15 21:29:00,24.7,19.1,30.26,NW,313,3.0,6.0,79,0.00,,---,0.00,VWS V14.01,2013-01-16 02:29:00,
2013-01-15 21:34:00,24.6,19.3,30.26,NW,314,4.0,8.0,80,0.00,,---,0.00,VWS V14.01,2013-01-16 02:34:00,
2013-01-15 21:39:00,24.6,19.0,30.26,NW,304,5.0,8.0,79,0.00,,---,0.00,VWS V14.01,2013-01-16 02:39:00,
2013-01-15 21:44:00,24.5,19.2,30.26,NNW,328,5.0,7.0,80,0.00,,---,0.00,VWS V14.01,2013-01-16 02:44:00,
2013-01-15 21:49:00,24.5,19.2,30.27,NW,308,6.0,8.0,80,0.00,,---,0.00,VWS V14.01,2013-01-16 02:49:00,
2013-01-15 21:54:00,24.5,19.2,30.26,NW,316,5.0,8.0,80,0.00,,---,0.00,VWS V14.01,2013-01-16 02:54:00,
2013-01-15 21:59:00,24.5,19.2,30.26,NW,307,4.0,7.0,80,0.00,,---,0.00,VWS V14.01,2013-01-16 02:59:00,
2013-01-15 22:04:00,24.4,19.1,30.26,NW,319,6.0,9.0,80,0.00,,---,0.00,VWS V14.01,2013-01-16 03:04:00,
2013-01-15 22:09:00,24.4,19.1,30.26,NW,314,5.0,7.0,80,0.00,,---,0.00,VWS V14.01,2013-01-16 03:09:00,
2013-01-15 22:14:00,24.4,19.1,30.26,NW,313,5.0,7.0,80,0.00,,---,0.00,VWS V14.01,2013-01-16 03:14:00,
2013-01-15 22:19:00,24.4,19.1,30.25,NW,322,3.0,8.0,80,0.00,,---,0.00,VWS V14.01,2013-01-16 03:19:00,
2013-01-15 22:24:00,24.4,19.1,30.25,WNW,302,7.0,9.0,80,0.00,,---,0.00,VWS V14.01,2013-01-16 03:24:00,
2013-01-15 22:29:00,24.4,18.8,30.25,NW,309,4.0,11.0,79,0.00,,---,0.00,VWS V14.01,2013-01-16 03:29:00,
2013-01-15 22:34:00,24.4,19.1,30.26,NW,323,7.0,9.0,80,0.00,,---,0.00,VWS V14.01,2013-01-16 03:34:00,
2013-01-15 22:39:00,24.4,19.1,30.27,WNW,292,4.0,9.0,80,0.00,,---,0.00,VWS V14.01,2013-01-16 03:39:00,
2013-01-15 22:44:00,24.4,19.1,30.26,NNW,328,4.0,6.0,80,0.00,,---,0.00,VWS V14.01,2013-01-16 03:44:00,
2013-01-15 22:49:00,24.4,19.1,30.26,NW,308,6.0,7.0,80,0.00,,---,0.00,VWS V14.01,2013-01-16 03:49:00,
2013-01-15 22:54:00,24.3,19.0,30.26,WNW,292,2.0,4.0,80,0.00,,---,0.00,VWS V14.01,2013-01-16 03:54:00,
2013-01-15 22:59:00,24.3,19.0,30.25,NW,318,1.0,5.0,80,0.00,,---,0.00,VWS V14.01,2013-01-16 03:59:00,
2013-01-15 23:04:00,24.3,19.3,30.26,NW,319,4.0,4.0,81,0.00,,---,0.00,VWS V14.01,2013-01-16 04:04:00,
2013-01-15 23:09:00,24.3,19.3,30.25,WNW,291,5.0,7.0,81,0.00,,---,0.00,VWS V14.01,2013-01-16 04:09:00,
2013-01-15 23:14:00,24.3,19.3,30.25,NW,308,3.0,6.0,81,0.00,,---,0.00,VWS V14.01,2013-01-16 04:14:00,
2013-01-15 23:19:00,24.3,19.3,30.25,NW,311,4.0,5.0,81,0.00,,---,0.00,VWS V14.01,2013-01-16 04:19:00,
2013-01-15 23:24:00,24.3,19.6,30.25,WNW,293,7.0,7.0,82,0.00,,---,0.00,VWS V14.01,2013-01-16 04:24:00,
2013-01-15 23:29:00,24.3,19.3,30.25,WNW,295,3.0,7.0,81,0.00,,---,0.00,VWS V14.01,2013-01-16 04:29:00,
2013-01-15 23:34:00,24.3,19.6,30.25,WNW,288,4.0,4.0,82,0.00,,---,0.00,VWS V14.01,2013-01-16 04:34:00,
2013-01-15 23:39:00,24.2,19.5,30.24,NW,315,2.0,4.0,82,0.00,,---,0.00,VWS V14.01,2013-01-16 04:39:00,
2013-01-15 23:44:00,24.2,19.5,30.24,WNW,294,3.0,5.0,82,0.00,,---,0.00,VWS V14.01,2013-01-16 04:44:00,
2013-01-15 23:49:00,24.3,19.6,30.25,West,276,1.0,3.0,82,0.00,,---,0.00,VWS V14.01,2013-01-16 04:49:00,
2013-01-15 23:54:00,24.2,19.5,30.25,WNW,283,1.0,2.0,82,0.00,,---,0.00,VWS V14.01,2013-01-16 04:54:00,
2013-01-15 23:59:00,24.3,19.6,30.24,WNW,289,2.0,2.0,82,0.00,,---,0.00,VWS V14.01,2013-01-16 04:59:00,